Regional Weather Roundup
Issued by NWS

Home | Current Version | Previous Version | Text Only | Print | Product List | Glossary Off
Versions: 1 2 3 4 5 6 7 8 9 10 11 12 13 14 15 16 17 18 19 20 21 22 23 24 25 26 27 28 29 30 31 32 33 34 35 36 37 38 39 40 41 42 43 44 45 46 47 48 49 50

000
ASUS45 KBOU 021207
RWRCO

WEATHER ROUNDUP FOR COLORADO
NATIONAL WEATHER SERVICE DENVER/BOULDER CO
600 AM MDT TUE SEP 02 2014

NOTE: "FAIR" INDICATES FEW OR NO CLOUDS BELOW 12000 FEET WITH NO
SIGNIFICANT WEATHER AND/OR OBSTRUCTIONS TO VISIBILITY.

COZ001>005-013-030-031-021300-
...NORTHWEST COLORADO...

CITY           SKY/WX    TMP DP  RH WIND       PRES   REMARKS
CRAIG          CLEAR     38  34  85 CALM      30.20R
HAYDEN         CLEAR     43  34  70 E9        30.20R
MEEKER         CLEAR     44  35  70 E6        30.19S
MOUNT WERNER   NOT AVBL
STEAMBOAT SPGS CLEAR     39  36  86 CALM      30.23R
WALDEN         CLEAR     32  30  93 SE7       30.26F WCI  26
$$

COZ006>008-011-021300-
...WEST CENTRAL VALLEYS...

CITY           SKY/WX    TMP DP  RH WIND       PRES   REMARKS
GRAND JUNCTION CLEAR     54  40  59 SE8       30.08S
MONTROSE       CLEAR     51  39  63 SE7       30.17R
EAGLE          CLEAR     41  36  81 CALM      30.26S
RIFLE          CLEAR     47  40  76 S8        30.17R
DELTA          CLEAR     55  38  53 NE8       30.14R
NUCLA          CLEAR     54  34  47 SE7       30.19S
$$

COZ017>023-064>068-021300-
...SOUTHWEST COLORADO...

CITY           SKY/WX    TMP DP  RH WIND       PRES   REMARKS
DURANGO        CLEAR     48  34  58 CALM      30.20R
CORTEZ         CLEAR     48  38  68 E6        30.16R
PAGOSA SPRINGS CLEAR     46  31  56 CALM      30.28S
TELLURIDE      CLEAR     48  34  57 SE6       30.38S
WOLF CREEK PAS CLEAR     45  25  45 SW8       30.57S
$$

COZ009-010-012-014-032>034-037-058>063-021300-
...CENTRAL COLORADO...

CITY           SKY/WX    TMP DP  RH WIND       PRES   REMARKS
ASPEN          CLEAR     43  32  65 S7        30.28R
BUENA VISTA    CLEAR     43  32  65 E3        30.29R
COPPER MTN     CLEAR     45  21  39 S14G21    30.52S
BERTHOUD PASS  FAIR      36  36 100 W21G26    30.52F
COTTONWOOD PAS CLEAR     55  23  28 NW7G20    30.38R
GUNNISON       CLEAR     37  30  75 CALM      30.35R
KREMMLING      CLEAR     34  32  93 CALM      30.30R
LEADVILLE      CLEAR     41  26  55 NE9       30.38F
MONARCH PASS   CLEAR     41  28  60 W28       30.62S
SALIDA         CLEAR     43  33  69 CALM      30.35S
SUNLIGHT       CLEAR     45  32  61 CALM      30.45R
WILKERSON PASS NOT AVBL
$$

COZ069>075-021300-
...SAN LUIS VALLEY/SANGRE DE CRISTO MOUNTAINS...

CITY           SKY/WX    TMP DP  RH WIND       PRES   REMARKS
ALAMOSA        PTCLDY    36  29  75 CALM      30.29R
LA VETA PASS   NOT AVBL
SAGUACHE       NOT AVBL
$$

COZ035-036-038>040-021300-
...NORTHERN COLORADO FRONT RANGE...

CITY           SKY/WX    TMP DP  RH WIND       PRES   REMARKS
DENVER INTL AP CLEAR     52  41  66 S3        30.13F
DMNS CITY PARK   N/A     51  45  78 SE3       30.13S
AURORA         CLEAR     47  43  85 S13       30.15S
FRONT RANGE AP CLEAR     50  45  81 S6        30.14F
ERIE MUNI ARPT CLEAR     47  44  88 SW3       30.12S
BOULDER MUN AP CLEAR     52  43  71 W3        30.13S
CENTENNIAL     CLEAR     47  42  83 S6        30.15F
BROOMFIELD     CLEAR     52  43  71 W6        30.14S
FORT COLLINS   CLEAR     48  43  81 N7        30.14S
LONGMONT       CLEAR     48  43  83 W3        30.14F
$$

COZ041-046-047-076>085-087-088-021300-
...PIKES PEAK/PALMER DIVIDE AND SOUTHERN FOOTHILLS...

CITY           SKY/WX    TMP DP  RH WIND       PRES   REMARKS
COLO. SPRINGS  MOCLDY    57  48  72 N3        30.20R
A. F. ACADEMY  CLEAR     44  40  88 N8        30.21R
ELLICOTT       CLOUDY    57  52  83 CALM      30.17S
FALCON         CLOUDY    55  54  97 SW8       30.23S
FORT CARSON    MOCLDY    54  46  76 N9        30.17S
LIMON          MOCLDY    52  47  83 NW6       30.15R
MONUMENT HILL  CLEAR     41  37  87 S9        30.21S
TRINIDAD       CLEAR     53  40  61 W9        30.16R
$$

COZ042>045-048>051-090-091-021300-
...NORTHEAST COLORADO...

CITY           SKY/WX    TMP DP  RH WIND       PRES   REMARKS
GREELEY ARPT   CLEAR     45  36  70 NW5       30.13S
AKRON          CLEAR     51  49  92 MISG      30.11R
BURLINGTON     CLEAR     52  50  93 W3        30.10R
WRAY             N/A    N/A N/A N/A W3        30.07R
STERLING       CLEAR     48  46  93 CALM      30.08S
HOLYOKE        CLEAR     52  48  87 W5        30.07R
FORT MORGAN    CLEAR     47  43  85 CALM      30.11S
$$

COZ086-089-092>099-021300-
...SOUTHEAST COLORADO...

CITY           SKY/WX    TMP DP  RH WIND       PRES   REMARKS
PUEBLO         MOCLDY    59  50  72 SW5       30.11R
LA JUNTA       PTCLDY    60  58  92 N8        30.08R
LAMAR          CLOUDY    63  60  90 NE7       30.06R
SPRINGFIELD      N/A     59  58  96 NW5       30.06R
$$


USA.gov is the U.S. government's official web portal to all federal, state and local government web resources and services.